カタログに戻る

STARLINK-6173

運用中通信VLEO
NORAD 56385·PAYLOAD·🇺🇸 United States

打ち上げ May 4, 2023 から Cape Canaveral Space Force Station

Loading…

次のパス (今後24時間)

TLE

最新Source: CelesTrak SupGP

元期: Sep 14, 2026, 21:57 UTC

1 56385C 23061M   26257.91506944 -.00001997  00000+0 -72314-4 0  2574
2 56385  42.9998 209.3226 0001242 259.8169 272.4823 15.27580519    15

AllMySatでSTARLINK-6173をリアルタイム追跡

Download on the App Store